Погода в Железном Порту

Украина / Херсонская область     46°07′21″N   32°17′33″E
темп.,
°C
ветер,
м/с
пор.,
м/с
влажн.,
%
обл.,
%
осадки,
мм/ч
давл.,
гПа
погр.,
м
16 апреля, пт
пт1600:00+8зюз8118799 0.0 1016512
03:00+8зюз698755 0.0 1016299
06:00+8зюз3481100 0.0 101578
09:00+8юз347986 0.1 101665
12:00+7зсз66877 0.1 1017342
15:00+7з7884100 0.1 1018575
18:00+7зюз56805 0.0 1018429
21:00+7юз57845 0.0 1019273
17 апреля, сб
сб1700:00+8ююз68865 0.0 1019268
03:00+8ююз57855 0.0 1020173
06:00+8ююз45831 0.0 102075
09:00+9ююз55775 0.0 102193
12:00+9ююз4578100 0.0 1021104
15:00+9ююз44785 0.0 102192
18:00+9ююз34785 0.0 102164
21:00+9ю2278100 0.0 102112
18 апреля, вс
вс1800:00+9вюв227397 0.0 101911
03:00+8св457590 0.0 101880
06:00+8всв5780100 0.0 1018196
09:00+8всв688081 0.0 1018271
12:00+9в687735 0.0 1017217
15:00+10в57838 0.0 1017124
18:00+10в688599 0.0 1016103
21:00+10в699099 0.0 1016129
19 апреля, пн
пн1900:00+9в5593100 0.0 101687
03:00+9в559469 0.0 1015112
06:00+9в5594100 0.0 1014115
09:00+9в6794100 0.1 1013170
12:00+9в6992100 0.0 1012194
15:00+9в91294100 0.8 1009230
18:00+9в91397100 3.8 1006269
21:00+9вюв81199100 5.8 1002169
20 апреля, вт
вт2000:00+10ю132097100 6.7 999417
03:00+10ююз13189019 6.9 997504
06:00+9ю141789100 0.1 995828
09:00+8ю171993100 1.1 991823
12:00+9зюз141890100 0.4 994782
15:00+8з151792100 0.9 998904
18:00+8з151989100 1.0 10031196
21:00+10зюз111680100 1.3 1008441